When you browse on this site, cookies collect data to enhance your experience and personalize the content and advertising you see.
Visit our Privacy Policy to learn more. By continuing to use the site, you agree to this use of cookies and data.
  • en Belgique
  • Liste des pays
  • À 7 jours
  • Température de l'eau
  • Carte satellitaire
  • Carte météo
  • Widgets météo
  • user-avatar
    Se connecter

    Météo par heure à Liège

    Ce jour, 23 Février, Samedi

    Heure Température Précipitation Vent Pression Humidité
    00:00 +6°C° 0 mm 2 m/s 768 mmHg 89%
    01:00 +6°C° 0 mm 2 m/s 768 mmHg 89%
    02:00 +6°C° 0 mm 2 m/s 768 mmHg 89%
    03:00 +5°C° 0 mm 2 m/s 767 mmHg 89%
    04:00 +5°C° 0 mm 2 m/s 768 mmHg 90%
    05:00 +5°C° 0 mm 2 m/s 768 mmHg 90%
    06:00 +5°C° 0 mm 1 m/s 768 mmHg 91%
    07:00 +5°C° 0 mm 2 m/s 768 mmHg 84%
    08:00 +7°C° 0 mm 2 m/s 768 mmHg 78%
    09:00 +8°C° 0 mm 2 m/s 768 mmHg 71%
    10:00 +9°C° 0 mm 2 m/s 768 mmHg 62%
    11:00 +12°C° 0 mm 2 m/s 768 mmHg 53%
    12:00 +14°C° 0 mm 2 m/s 768 mmHg 45%
    13:00 +14°C° 0 mm 2 m/s 767 mmHg 44%
    14:00 +14°C° 0 mm 2 m/s 767 mmHg 44%
    15:00 +14°C° 0 mm 2 m/s 767 mmHg 44%
    16:00 +12°C° 0 mm 2 m/s 767 mmHg 48%
    17:00 +9°C° 0 mm 2 m/s 767 mmHg 52%
    18:00 +7°C° 0 mm 2 m/s 767 mmHg 56%
    19:00 +7°C° 0 mm 2 m/s 767 mmHg 53%
    20:00 +6°C° 0 mm 2 m/s 768 mmHg 51%
    21:00 +5°C° 0 mm 2 m/s 768 mmHg 49%
    22:00 +5°C° 0 mm 2 m/s 768 mmHg 46%
    23:00 +5°C° 0 mm 2 m/s 768 mmHg 44%

    Demain, 24 Février, Dimanche

    Heure Température Précipitation Vent Pression Humidité
    00:00 +5°C° 0 mm 2 m/s 768 mmHg 42%
    01:00 +5°C° 0 mm 2 m/s 768 mmHg 41%
    02:00 +4°C° 0 mm 2 m/s 768 mmHg 40%
    03:00 +5°C° 0 mm 1 m/s 768 mmHg 39%
    04:00 +5°C° 0 mm 1 m/s 768 mmHg 39%
    05:00 +5°C° 0 mm 1 m/s 768 mmHg 38%
    06:00 +5°C° 0 mm 1 m/s 768 mmHg 38%
    07:00 +6°C° 0 mm 1 m/s 768 mmHg 38%
    08:00 +8°C° 0 mm 1 m/s 769 mmHg 37%
    09:00 +10°C° 0 mm 1 m/s 769 mmHg 37%
    10:00 +11°C° 0 mm 1 m/s 769 mmHg 35%
    11:00 +13°C° 0 mm 1 m/s 769 mmHg 34%
    12:00 +15°C° 0 mm 1 m/s 769 mmHg 32%
    13:00 +15°C° 0 mm 1 m/s 769 mmHg 35%
    14:00 +15°C° 0 mm 1 m/s 768 mmHg 38%
    15:00 +16°C° 0 mm 1 m/s 768 mmHg 42%
    16:00 +14°C° 0 mm 2 m/s 768 mmHg 46%
    17:00 +12°C° 0 mm 2 m/s 768 mmHg 51%
    18:00 +9°C° 0 mm 2 m/s 768 mmHg 56%
    19:00 +8°C° 0 mm 2 m/s 769 mmHg 54%
    20:00 +8°C° 0 mm 2 m/s 769 mmHg 53%
    21:00 +7°C° 0 mm 2 m/s 769 mmHg 51%
    22:00 +7°C° 0 mm 2 m/s 769 mmHg 50%
    23:00 +7°C° 0 mm 2 m/s 769 mmHg 49%

    Après-demain, 25 Février, Lundi

    Heure Température Précipitation Vent Pression Humidité
    00:00 +7°C° 0 mm 2 m/s 769 mmHg 48%
    01:00 +7°C° 0 mm 1 m/s 769 mmHg 48%
    02:00 +7°C° 0 mm 1 m/s 769 mmHg 49%
    03:00 +7°C° 0 mm 1 m/s 769 mmHg 49%
    04:00 +7°C° 0 mm 1 m/s 769 mmHg 50%
    05:00 +7°C° 0 mm 1 m/s 769 mmHg 50%
    06:00 +7°C° 0 mm 1 m/s 769 mmHg 51%
    07:00 +8°C° 0 mm 1 m/s 769 mmHg 51%
    08:00 +10°C° 0 mm 1 m/s 769 mmHg 50%
    09:00 +12°C° 0 mm 1 m/s 770 mmHg 50%
    10:00 +13°C° 0 mm 1 m/s 769 mmHg 48%
    11:00 +15°C° 0 mm 1 m/s 769 mmHg 46%
    12:00 +17°C° 0 mm 2 m/s 769 mmHg 45%
    13:00 +18°C° 0 mm 2 m/s 769 mmHg 47%
    14:00 +19°C° 0 mm 1 m/s 768 mmHg 49%
    15:00 +19°C° 0 mm 1 m/s 768 mmHg 51%
    16:00 +16°C° 0 mm 1 m/s 768 mmHg 57%
    17:00 +14°C° 0 mm 1 m/s 768 mmHg 63%
    18:00 +12°C° 0 mm 1 m/s 768 mmHg 70%
    19:00 +11°C° 0 mm 1 m/s 768 mmHg 70%
    20:00 +9°C° 0 mm 2 m/s 768 mmHg 70%
    21:00 +9°C° 0 mm 2 m/s 768 mmHg 70%
    22:00 +9°C° 0 mm 2 m/s 768 mmHg 68%
    23:00 +9°C° 0 mm 2 m/s 768 mmHg 66%

    26 Février, Mardi

    Heure Température Précipitation Vent Pression Humidité
    00:00 +8°C° 0 mm 2 m/s 768 mmHg 64%
    01:00 +8°C° 0 mm 2 m/s 768 mmHg 64%
    02:00 +8°C° 0 mm 2 m/s 767 mmHg 63%
    03:00 +9°C° 0 mm 1 m/s 767 mmHg 63%
    04:00 +8°C° 0 mm 1 m/s 767 mmHg 63%
    05:00 +8°C° 0 mm 1 m/s 767 mmHg 63%
    06:00 +8°C° 0 mm 1 m/s 767 mmHg 64%
    07:00 +9°C° 0 mm 1 m/s 767 mmHg 60%
    08:00 +10°C° 0 mm 0 m/s 767 mmHg 57%
    09:00 +12°C° 0 mm 0 m/s 767 mmHg 54%
    10:00 +15°C° 0 mm 1 m/s 767 mmHg 50%
    11:00 +16°C° 0 mm 1 m/s 767 mmHg 45%
    12:00 +19°C° 0 mm 1 m/s 767 mmHg 41%
    13:00 +19°C° 0 mm 1 m/s 766 mmHg 43%
    14:00 +20°C° 0 mm 1 m/s 766 mmHg 44%
    15:00 +20°C° 0 mm 1 m/s 766 mmHg 46%
    16:00 +18°C° 0 mm 1 m/s 766 mmHg 52%
    17:00 +15°C° 0 mm 2 m/s 765 mmHg 58%
    18:00 +13°C° 0 mm 2 m/s 765 mmHg 64%
    19:00 +12°C° 0 mm 2 m/s 765 mmHg 64%
    20:00 +10°C° 0 mm 2 m/s 765 mmHg 64%
    21:00 +10°C° 0 mm 2 m/s 765 mmHg 64%
    22:00 +9°C° 0 mm 2 m/s 765 mmHg 63%
    23:00 +9°C° 0 mm 2 m/s 765 mmHg 61%

    27 Février, Mercredi

    Heure Température Précipitation Vent Pression Humidité
    00:00 +8°C° 0 mm 2 m/s 765 mmHg 60%
    01:00 +8°C° 0 mm 2 m/s 765 mmHg 58%
    02:00 +9°C° 0 mm 1 m/s 764 mmHg 57%
    03:00 +9°C° 0 mm 1 m/s 764 mmHg 56%
    04:00 +8°C° 0 mm 1 m/s 764 mmHg 56%
    05:00 +8°C° 0 mm 1 m/s 763 mmHg 56%
    06:00 +8°C° 0 mm 1 m/s 763 mmHg 57%
    07:00 +9°C° 0 mm 1 m/s 763 mmHg 55%
    08:00 +11°C° 0 mm 1 m/s 763 mmHg 53%
    09:00 +13°C° 0 mm 1 m/s 763 mmHg 51%
    10:00 +14°C° 0 mm 1 m/s 763 mmHg 48%
    11:00 +16°C° 0 mm 1 m/s 763 mmHg 44%
    12:00 +19°C° 0 mm 1 m/s 762 mmHg 41%
    13:00 +19°C° 0 mm 1 m/s 762 mmHg 42%
    14:00 +19°C° 0 mm 1 m/s 761 mmHg 44%
    15:00 +19°C° 0 mm 1 m/s 761 mmHg 46%
    16:00 +16°C° 0 mm 1 m/s 761 mmHg 52%
    17:00 +14°C° 0 mm 1 m/s 760 mmHg 59%
    18:00 +12°C° 0 mm 1 m/s 760 mmHg 65%
    19:00 +11°C° 0 mm 1 m/s 760 mmHg 68%
    20:00 +11°C° 0 mm 1 m/s 760 mmHg 71%
    21:00 +9°C° 0 mm 2 m/s 760 mmHg 74%
    22:00 +9°C° 0 mm 2 m/s 760 mmHg 75%
    23:00 +8°C° 0 mm 2 m/s 760 mmHg 77%

    28 Février, Jeudi

    Heure Température Précipitation Vent Pression Humidité
    00:00 +8°C° 0 mm 2 m/s 760 mmHg 78%
    01:00 +8°C° 0 mm 2 m/s 759 mmHg 78%
    02:00 +7°C° 0 mm 2 m/s 759 mmHg 77%
    03:00 +7°C° 0 mm 2 m/s 759 mmHg 77%
    04:00 +7°C° 0 mm 2 m/s 759 mmHg 78%
    05:00 +7°C° 0 mm 2 m/s 759 mmHg 79%
    06:00 +5°C° 0 mm 3 m/s 759 mmHg 80%
    07:00 +8°C° 0 mm 3 m/s 759 mmHg 78%
    08:00 +9°C° 0 mm 3 m/s 759 mmHg 77%
    09:00 +10°C° 0 mm 3 m/s 759 mmHg 76%
    10:00 +11°C° 0 mm 3 m/s 759 mmHg 73%
    11:00 +13°C° 0 mm 3 m/s 759 mmHg 70%
    12:00 +14°C° 0 mm 4 m/s 759 mmHg 67%
    13:00 +14°C° 0 mm 4 m/s 758 mmHg 67%
    14:00 +15°C° 0 mm 4 m/s 758 mmHg 66%
    15:00 +15°C° 0 mm 4 m/s 758 mmHg 65%
    16:00 +13°C° 0 mm 3 m/s 758 mmHg 71%
    17:00 +11°C° 0 mm 3 m/s 758 mmHg 78%
    18:00 +10°C° 0 mm 2 m/s 758 mmHg 84%
    19:00 +9°C° 0 mm 2 m/s 758 mmHg 86%
    20:00 +8°C° 0 mm 2 m/s 758 mmHg 89%
    21:00 +8°C° 0 mm 2 m/s 758 mmHg 92%
    22:00 +7°C° 0 mm 2 m/s 758 mmHg 93%
    23:00 +8°C° 0 mm 1 m/s 758 mmHg 94%
    Voir plus